TimeEST,TemperatureF,Dew PointF,Humidity,Sea Level PressureIn,VisibilityMPH,Wind Direction,Wind SpeedMPH,Gust SpeedMPH,PrecipitationIn,Events,Conditions,WindDirDegrees,DateUTC
12:15 AM,50.0,48.9,96,30.05,10.0,Calm,Calm,-,N/A,,Clear,0,2013-02-06 05:15:00
12:35 AM,50.0,49.1,97,30.05,10.0,Calm,Calm,-,N/A,,Clear,0,2013-02-06 05:35:00
12:55 AM,50.9,50.2,97,30.05,10.0,Calm,Calm,-,N/A,,Clear,0,2013-02-06 05:55:00
1:15 AM,50.0,49.5,98,30.05,10.0,Calm,Calm,-,N/A,,Clear,0,2013-02-06 06:15:00
1:35 AM,52.0,51.4,98,30.06,10.0,Calm,Calm,-,N/A,,Clear,0,2013-02-06 06:35:00
1:55 AM,49.3,49.1,99,30.05,10.0,Calm,Calm,-,N/A,,Clear,0,2013-02-06 06:55:00
2:15 AM,50.7,50.7,100,30.06,10.0,Calm,Calm,-,N/A,,Clear,0,2013-02-06 07:15:00
2:35 AM,50.9,50.9,100,30.06,5.0,Calm,Calm,-,N/A,,Clear,0,2013-02-06 07:35:00
2:55 AM,50.5,50.5,100,30.06,5.0,Calm,Calm,-,N/A,,Clear,0,2013-02-06 07:55:00
3:15 AM,49.1,49.1,100,30.06,0.2,Calm,Calm,-,N/A,Fog,Fog,0,2013-02-06 08:15:00
3:35 AM,49.6,49.6,100,30.06,0.2,Calm,Calm,-,N/A,Fog,Fog,0,2013-02-06 08:35:00
3:55 AM,48.2,48.2,100,30.07,2.5,Calm,Calm,-,N/A,,Clear,0,2013-02-06 08:55:00
4:15 AM,48.6,48.6,100,30.07,0.8,Calm,Calm,-,N/A,,Mist,0,2013-02-06 09:15:00
4:35 AM,46.4,46.4,100,30.07,0.2,Calm,Calm,-,N/A,Fog,Fog,0,2013-02-06 09:35:00
4:55 AM,47.7,47.7,100,30.08,4.0,Calm,Calm,-,N/A,,Clear,0,2013-02-06 09:55:00
5:15 AM,47.3,47.3,100,30.08,0.8,Calm,Calm,-,N/A,,Mist,0,2013-02-06 10:15:00
5:35 AM,46.0,46.0,100,30.08,0.2,Calm,Calm,-,N/A,Fog,Fog,0,2013-02-06 10:35:00
5:55 AM,47.5,47.5,100,30.09,1.5,Calm,Calm,-,N/A,,Mist,0,2013-02-06 10:55:00
6:15 AM,48.2,48.2,100,30.10,3.0,Calm,Calm,-,N/A,,Clear,0,2013-02-06 11:15:00
6:35 AM,47.8,47.8,100,30.10,1.5,Calm,Calm,-,N/A,,Mist,0,2013-02-06 11:35:00
6:55 AM,51.4,51.4,100,30.11,3.0,West,3.5,-,N/A,,Clear,280,2013-02-06 11:55:00
7:15 AM,48.2,48.2,100,30.12,1.8,Calm,Calm,-,N/A,,Mostly Cloudy,0,2013-02-06 12:15:00
7:35 AM,48.2,48.2,100,30.13,0.2,Calm,Calm,-,N/A,Fog,Fog,0,2013-02-06 12:35:00
8:15 AM,49.6,49.6,100,30.14,0.5,Calm,Calm,-,N/A,Fog,Fog,0,2013-02-06 13:15:00
8:35 AM,52.2,52.2,100,30.15,1.8,Calm,Calm,-,N/A,,Mist,0,2013-02-06 13:35:00
8:55 AM,53.8,53.8,100,30.15,5.0,Calm,Calm,-,N/A,,Clear,0,2013-02-06 13:55:00
9:15 AM,55.0,55.0,100,30.16,7.0,Calm,Calm,-,N/A,,Clear,0,2013-02-06 14:15:00
9:35 AM,57.2,57.2,100,30.16,7.0,Calm,Calm,-,N/A,,Clear,0,2013-02-06 14:35:00
9:55 AM,60.3,55.6,85,30.16,10.0,Calm,Calm,-,N/A,,Clear,0,2013-02-06 14:55:00
10:15 AM,63.9,53.2,68,30.17,10.0,North,6.9,-,N/A,,Clear,360,2013-02-06 15:15:00
10:35 AM,65.1,52.7,64,30.17,10.0,North,3.5,-,N/A,,Clear,350,2013-02-06 15:35:00
10:55 AM,67.3,50.0,54,30.17,10.0,ENE,5.8,-,N/A,,Clear,60,2013-02-06 15:55:00
11:15 AM,68.0,49.5,51,30.17,10.0,Calm,Calm,-,N/A,,Clear,0,2013-02-06 16:15:00
11:35 AM,69.4,48.9,48,30.17,10.0,Calm,Calm,-,N/A,,Clear,0,2013-02-06 16:35:00
11:55 AM,70.3,49.1,47,30.17,10.0,North,3.5,-,N/A,,Clear,10,2013-02-06 16:55:00
12:15 PM,70.7,48.9,46,30.16,10.0,Calm,Calm,-,N/A,,Clear,0,2013-02-06 17:15:00
12:35 PM,71.2,48.9,45,30.15,10.0,West,5.8,-,N/A,,Clear,280,2013-02-06 17:35:00
12:55 PM,71.8,48.6,44,30.13,10.0,NE,4.6,-,N/A,,Clear,40,2013-02-06 17:55:00
1:15 PM,72.3,48.6,43,30.12,10.0,Calm,Calm,-,N/A,,Clear,0,2013-02-06 18:15:00
1:35 PM,74.1,49.1,41,30.11,10.0,ESE,4.6,-,N/A,,Clear,110,2013-02-06 18:35:00
1:55 PM,74.1,49.1,41,30.11,10.0,Calm,Calm,-,N/A,,Clear,0,2013-02-06 18:55:00
2:15 PM,74.7,49.8,42,30.11,10.0,SSW,4.6,-,N/A,,Clear,200,2013-02-06 19:15:00
2:35 PM,75.2,50.4,42,30.11,10.0,West,3.5,-,N/A,,Scattered Clouds,260,2013-02-06 19:35:00
2:55 PM,75.0,50.2,42,30.11,10.0,West,4.6,-,N/A,,Scattered Clouds,260,2013-02-06 19:55:00
3:15 PM,74.7,50.0,42,30.11,10.0,WSW,4.6,-,N/A,,Clear,240,2013-02-06 20:15:00
3:35 PM,75.0,50.9,43,30.10,10.0,WSW,4.6,-,N/A,,Scattered Clouds,240,2013-02-06 20:35:00
3:55 PM,74.5,50.4,43,30.10,10.0,WSW,4.6,-,N/A,,Mostly Cloudy,250,2013-02-06 20:55:00
4:15 PM,74.8,49.6,41,30.10,10.0,Calm,Calm,-,N/A,,Scattered Clouds,0,2013-02-06 21:15:00
4:35 PM,74.5,50.0,42,30.10,10.0,WSW,3.5,-,N/A,,Clear,240,2013-02-06 21:35:00
4:55 PM,74.3,50.2,43,30.10,10.0,SW,4.6,-,N/A,,Clear,220,2013-02-06 21:55:00
5:15 PM,73.6,50.2,44,30.10,10.0,Calm,Calm,-,N/A,,Clear,0,2013-02-06 22:15:00
5:35 PM,72.5,50.2,45,30.11,10.0,Calm,Calm,-,N/A,,Clear,0,2013-02-06 22:35:00
5:55 PM,69.1,51.1,53,30.11,10.0,Calm,Calm,-,N/A,,Clear,0,2013-02-06 22:55:00
6:15 PM,65.3,51.1,60,30.11,10.0,Calm,Calm,-,N/A,,Clear,0,2013-02-06 23:15:00
6:35 PM,63.3,52.7,68,30.12,10.0,Calm,Calm,-,N/A,,Clear,0,2013-02-06 23:35:00
6:55 PM,61.3,52.7,73,30.12,10.0,Calm,Calm,-,N/A,,Clear,0,2013-02-06 23:55:00
7:15 PM,58.8,52.0,78,30.13,10.0,Calm,Calm,-,N/A,,Clear,0,2013-02-07 00:15:00
7:35 PM,57.6,51.1,79,30.13,10.0,Calm,Calm,-,N/A,,Clear,0,2013-02-07 00:35:00
7:55 PM,56.1,50.9,83,30.13,10.0,Calm,Calm,-,N/A,,Clear,0,2013-02-07 00:55:00
8:15 PM,54.7,50.2,85,30.13,10.0,Calm,Calm,-,N/A,,Clear,0,2013-02-07 01:15:00
8:35 PM,55.0,50.7,85,30.12,10.0,SE,4.6,-,N/A,,Clear,140,2013-02-07 01:35:00
8:55 PM,60.1,53.1,78,30.13,10.0,SSE,3.5,-,N/A,,Clear,150,2013-02-07 01:55:00
9:15 PM,57.7,52.5,83,30.15,10.0,Calm,Calm,-,N/A,,Clear,0,2013-02-07 02:15:00
9:35 PM,54.1,50.4,87,30.16,10.0,Calm,Calm,-,N/A,,Clear,0,2013-02-07 02:35:00
9:55 PM,53.8,50.9,90,30.16,10.0,Calm,Calm,-,N/A,,Clear,0,2013-02-07 02:55:00
10:15 PM,53.1,50.7,92,30.16,10.0,Calm,Calm,-,N/A,,Clear,0,2013-02-07 03:15:00
10:35 PM,51.1,49.6,95,30.16,10.0,Calm,Calm,-,N/A,,Clear,0,2013-02-07 03:35:00
10:55 PM,50.7,49.6,96,30.16,10.0,Calm,Calm,-,N/A,,Clear,0,2013-02-07 03:55:00
11:15 PM,50.5,50.2,99,30.16,10.0,Calm,Calm,-,N/A,,Clear,0,2013-02-07 04:15:00
11:35 PM,50.4,50.0,99,30.16,10.0,Calm,Calm,-,N/A,,Clear,0,2013-02-07 04:35:00
11:55 PM,49.5,49.3,99,30.15,10.0,Calm,Calm,-,N/A,,Clear,0,2013-02-07 04:55:00